Location: Elliott Corner
(37.4627°N, 119.7746°W)
Time: 23:43:47
(UTC+00:00)

NOSS 3-2 (A) - Pass Details

Date: 10 September 2024
Orbit: 700 x 1505 km, 63.4° (Epoch: 13 October)

Event Time Altitude Azimuth Distance (km) Brightness Sun altitude
Exits shadow 12:54:57 11° 246° (WSW) 2,184 4.7 -9.1°
Maximum altitude 12:59:27 36° 313° (NW) 1,254 3.9 -8.3°
Drops below altitude 10° 13:04:52 10° 19° (NNE) 2,603 6.2 -7.2°
Sets 13:07:51 0° 28° (NNE) 3,681 7.1 -6.6°
